Date String (YYYY-MM-DD hh:mm:ss) UTC,Instrument flags,Ambient pressure (hPa),Sample flow (lpm),Bypass flow (lpm),Sample temperature (°C),Ambient temperature (°C),ASC tube jacket temperature (°C),LED temperature (°C),Box temperature (°C),Sample RH (%),Span deviation,Mass concentration (μg/m³),Mass concentration (μg/m³),Mass concentration (μg/m³)
DateTimeUTC,F1_M11,P_M11,Q1_M11,Q2_M11,T1_M11,T2_M11,T3_M11,T4_M11,T5_M11,U1_M11,ZSPAN_M11,X2_M11,X0_M11,X1_M11
2022-10-18 21:00:00,,0832.5,5.01,0.00,29.9,28.3,00.0,38.8,31.7,11.2,0000.0,0004.03,0010.97,0003.35
2022-10-18 21:01:00,,0832.4,5.01,0.00,30.0,28.4,00.0,38.8,31.7,11.2,0000.0,0004.08,0010.57,0003.39
2022-10-18 21:02:00,,0832.4,5.01,0.00,30.0,28.6,00.0,38.8,31.8,11.3,0000.0,0004.14,0010.76,0003.42
2022-10-18 21:03:00,,0832.4,4.99,0.00,30.0,28.7,00.0,38.8,31.8,11.2,0000.0,0004.18,0011.27,0003.44
2022-10-18 21:04:00,,0832.4,4.99,0.00,30.0,28.8,00.0,38.8,31.9,11.2,0000.0,0004.21,0011.40,0003.46
2022-10-18 21:05:00,,0832.4,5.01,0.00,30.0,28.9,00.0,38.8,31.9,11.4,0000.0,0004.21,0011.63,0003.48
2022-10-18 21:06:00,,0832.5,4.98,0.00,30.0,28.9,00.0,38.8,31.9,11.6,0000.0,0004.27,0011.80,0003.52
2022-10-18 21:07:00,,0832.4,5.01,0.00,30.1,29.0,00.0,38.8,32.0,11.4,0000.0,0004.25,0011.58,0003.53
2022-10-18 21:08:00,,0832.4,4.98,0.00,30.1,29.1,00.0,38.8,32.0,11.1,0000.0,0004.24,0011.38,0003.54
2022-10-18 21:09:00,,0832.5,5.01,0.00,30.1,29.1,00.0,38.8,32.0,11.1,0000.0,0004.25,0011.04,0003.56
2022-10-18 21:10:00,,0832.5,5.00,0.00,30.1,29.2,00.0,38.9,32.0,11.0,0000.0,0004.29,0011.69,0003.58
2022-10-18 21:11:00,,0832.4,5.00,0.00,30.2,29.2,00.0,38.9,32.1,11.0,0000.0,0004.33,0011.29,0003.59
2022-10-18 21:12:00,,0832.4,4.98,0.00,30.2,29.2,00.0,38.9,32.1,10.9,0000.0,0004.33,0010.90,0003.59
2022-10-18 21:13:00,,0832.4,5.01,0.00,30.2,29.3,00.0,38.9,32.1,10.9,0000.0,0004.38,0010.85,0003.61
2022-10-18 21:14:00,,0832.4,5.00,0.00,30.3,29.3,00.0,39.0,32.2,10.9,0000.0,0004.40,0010.44,0003.64
2022-10-18 21:15:00,,0832.5,5.00,0.00,30.3,29.3,00.0,39.0,32.2,10.9,0000.0,0004.42,0010.43,0003.66
2022-10-18 21:16:00,,0832.4,5.00,0.00,30.3,28.1,00.0,39.0,32.1,10.7,0000.0,0004.46,0010.58,0003.68
2022-10-18 21:17:00,,0832.4,5.01,0.00,30.3,27.1,00.0,38.9,32.0,10.7,0000.0,0004.43,0010.81,0003.67
2022-10-18 21:18:00,,0832.5,5.00,0.00,30.2,27.2,00.0,38.9,31.9,10.8,0000.0,0004.42,0012.18,0003.67
2022-10-18 21:19:00,,0832.4,5.00,0.00,30.1,27.4,00.0,38.9,31.8,10.9,0000.0,0004.42,0012.98,0003.67
2022-10-18 21:20:00,,0832.4,5.00,0.00,30.1,27.7,00.0,38.9,31.8,10.8,0000.0,0004.39,0012.44,0003.66
2022-10-18 21:21:00,,0832.4,4.99,0.00,30.1,28.0,00.0,38.9,31.8,10.9,0000.0,0004.36,0011.80,0003.66
2022-10-18 21:22:00,,0832.4,5.02,0.00,30.1,28.2,00.0,38.9,31.8,10.9,0000.0,0004.36,0011.63,0003.65
2022-10-18 21:23:00,,0832.4,5.00,0.00,30.1,28.4,00.0,38.9,31.9,11.1,0000.0,0004.39,0011.89,0003.66
2022-10-18 21:24:00,,0832.4,4.98,0.00,30.1,28.6,00.0,38.9,31.9,11.0,0000.0,0004.41,0012.08,0003.68
2022-10-18 21:25:00,,0832.5,5.02,0.00,30.1,28.7,00.0,38.9,31.9,11.0,0000.0,0004.43,0012.68,0003.69
2022-10-18 21:26:00,,0832.5,4.98,0.00,30.1,28.8,00.0,38.9,32.0,11.0,0000.0,0004.43,0013.59,0003.70
2022-10-18 21:27:00,,0832.4,5.00,0.00,30.1,28.9,00.0,38.9,32.0,11.0,0000.0,0004.45,0013.28,0003.73
2022-10-18 21:28:00,,0832.5,5.01,0.00,30.1,29.0,00.0,38.9,32.0,11.0,0000.0,0004.50,0012.89,0003.77
2022-10-18 21:29:00,,0832.4,5.00,0.00,30.2,29.1,00.0,38.9,32.0,11.0,0000.0,0004.55,0011.52,0003.81
2022-10-18 21:30:00,,0832.5,5.00,0.00,30.2,29.2,00.0,38.9,32.1,10.9,0000.0,0004.56,0011.16,0003.83
2022-10-18 21:31:00,,0832.5,5.00,0.00,30.2,29.2,00.0,38.9,32.1,10.8,0000.0,0004.56,0012.64,0003.86
2022-10-18 21:32:00,,0832.5,4.99,0.00,30.2,29.3,00.0,39.0,32.1,10.9,0000.0,0004.60,0013.21,0003.89
2022-10-18 21:33:00,,0832.5,5.00,0.00,30.3,29.3,00.0,39.0,32.2,10.9,0000.0,0004.63,0012.94,0003.93
2022-10-18 21:34:00,,0832.5,4.99,0.00,30.3,29.4,00.0,39.0,32.2,10.8,0000.0,0004.67,0012.79,0003.96
2022-10-18 21:35:00,,0832.5,5.00,0.00,30.3,29.2,00.0,39.0,32.2,10.8,0000.0,0004.66,0013.10,0003.99
2022-10-18 21:36:00,,0832.5,5.00,0.00,30.3,27.7,00.0,39.0,32.0,10.9,0000.0,0004.65,0013.14,0004.01
2022-10-18 21:37:00,,0832.5,5.02,0.00,30.2,26.5,00.0,38.9,31.8,10.9,0000.0,0004.68,0012.17,0004.04
2022-10-18 21:38:00,,0832.5,4.98,0.00,30.1,26.4,00.0,38.9,31.7,10.9,0000.0,0004.70,0012.24,0004.06
2022-10-18 21:39:00,,0832.5,5.01,0.00,30.0,26.7,00.0,38.8,31.5,11.0,0000.0,0004.72,0012.80,0004.08
2022-10-18 21:40:00,,0832.5,5.00,0.00,29.9,27.0,00.0,38.8,31.5,11.1,0000.0,0004.74,0013.58,0004.10
2022-10-18 21:41:00,,0832.5,5.00,0.00,29.9,27.4,00.0,38.8,31.5,11.1,0000.0,0004.79,0014.67,0004.12
2022-10-18 21:42:00,,0832.5,4.99,0.00,29.9,27.7,00.0,38.7,31.6,11.1,0000.0,0004.89,0013.66,0004.15
2022-10-18 21:43:00,,0832.5,5.00,0.00,29.9,28.0,00.0,38.7,31.6,11.2,0000.0,0004.91,0013.10,0004.15
2022-10-18 21:44:00,,0832.5,5.00,0.00,29.9,28.2,00.0,38.7,31.7,11.1,0000.0,0004.96,0013.35,0004.15
2022-10-18 21:45:00,,0832.5,5.00,0.00,29.9,28.4,00.0,38.7,31.7,11.2,0000.0,0004.93,0013.32,0004.14
2022-10-18 21:46:00,,0832.5,5.00,0.00,29.9,28.5,00.0,38.7,31.7,11.1,0000.0,0004.93,0013.39,0004.13
2022-10-18 21:47:00,,0832.5,4.98,0.00,30.0,28.7,00.0,38.7,31.8,11.1,0000.0,0004.97,0013.44,0004.14
2022-10-18 21:48:00,,0832.5,5.01,0.00,30.0,28.8,00.0,38.8,31.8,11.1,0000.0,0005.03,0013.60,0004.16
2022-10-18 21:49:00,,0832.4,5.01,0.00,30.0,28.9,00.0,38.8,31.9,11.0,0000.0,0005.04,0014.22,0004.16
2022-10-18 21:50:00,,0832.4,5.00,0.00,30.0,29.0,00.0,38.8,31.9,11.0,0000.0,0005.02,0013.77,0004.15
2022-10-18 21:51:00,,0832.5,5.00,0.00,30.1,29.1,00.0,38.8,32.0,11.0,0000.0,0005.01,0013.40,0004.15
2022-10-18 21:52:00,,0832.5,4.99,0.00,30.1,29.1,00.0,38.8,32.0,10.9,0000.0,0005.00,0012.21,0004.15
2022-10-18 21:53:00,,0832.4,5.01,0.00,30.1,29.2,00.0,38.8,32.0,11.0,0000.0,0004.97,0012.75,0004.16
2022-10-18 21:54:00,,0832.5,5.00,0.00,30.2,28.6,00.0,38.8,32.0,11.1,0000.0,0004.94,0014.79,0004.17
2022-10-18 21:55:00,,0832.5,5.03,0.00,30.1,27.3,00.0,38.8,31.9,11.0,0000.0,0004.92,0016.03,0004.19
2022-10-18 21:56:00,,0832.4,4.99,0.00,30.1,27.0,00.0,38.8,31.9,11.0,0000.0,0004.94,0016.28,0004.21
2022-10-18 21:57:00,,0832.4,5.00,0.00,30.0,27.2,00.0,38.7,31.7,11.0,0000.0,0004.94,0016.33,0004.21
2022-10-18 21:58:00,,0832.5,5.02,0.00,30.0,27.5,00.0,38.7,31.7,11.1,0000.0,0004.96,0015.84,0004.20
2022-10-18 21:59:00,,0832.4,5.00,0.00,29.9,27.8,00.0,38.7,31.7,11.1,0000.0,0004.95,0015.89,0004.19
